Date,TemperatureHighF,TemperatureAvgF,TemperatureLowF,DewpointHighF,DewpointAvgF,DewpointLowF,HumidityHigh,HumidityAvg,HumidityLow,PressureMaxIn,PressureMinIn,WindSpeedMaxMPH,WindSpeedAvgMPH,GustSpeedMaxMPH,PrecipitationSumIn
2014-1-2,15.4,7.1,-1.1,13.0,1.2,-99.9,89,83,83,29.87,29.11,10,-20,0,0.00
2014-1-3,3.8,-2.1,-9.0,-1.0,-6.8,-14.0,83,81,77,30.47,29.75,19,8,0,0.00
2014-1-4,20.7,6.8,-10.5,10.0,0.0,-15.0,84,74,60,30.53,30.32,11,1,0,0.03
2014-1-5,44.9,27.6,8.8,44.0,21.7,4.0,98,80,53,30.32,29.79,24,4,0,0.00
2014-1-6,55.3,39.7,20.6,55.0,35.7,11.0,98,86,53,29.77,29.35,27,10,0,0.00
2014-1-7,18.8,4.1,-0.1,16.0,-8.3,-13.0,89,57,46,30.30,29.56,18,7,0,0.00
2014-1-8,16.6,7.4,0.0,5.0,-2.2,-8.0,78,65,52,30.51,30.30,15,2,0,0.00
2014-1-9,25.6,11.8,2.5,13.0,5.5,-1.0,89,77,57,30.66,30.48,7,1,0,0.00
2014-1-10,34.3,27.3,11.0,33.0,23.8,8.0,94,87,68,30.59,30.23,3,0,0,0.06
2014-1-11,56.5,48.8,34.4,55.0,47.4,33.0,96,95,90,30.22,29.28,18,4,0,0.81
2014-1-12,48.6,37.6,27.4,47.0,30.5,24.0,94,75,66,30.01,29.32,7,2,0,0.00
2014-1-13,43.6,35.9,25.2,35.0,29.8,23.0,91,79,65,30.11,29.88,8,1,0,0.00
2014-1-14,43.3,41.5,36.8,41.0,38.3,35.0,95,88,72,29.88,29.66,5,1,0,0.56
2014-1-15,44.8,37.0,27.1,38.0,32.9,25.0,95,85,69,29.97,29.81,5,1,0,0.01
2014-1-16,37.1,29.3,27.3,34.0,26.8,25.0,91,90,88,29.94,29.86,13,3,0,0.00
2014-1-17,38.1,28.1,20.8,27.0,23.3,18.0,93,83,62,29.97,29.91,9,1,0,0.00
2014-1-18,32.9,28.3,22.4,30.0,25.3,18.0,91,88,83,29.89,29.64,9,2,0,0.04
2014-1-19,28.6,24.1,19.4,22.0,18.6,17.0,89,80,71,29.79,29.59,9,2,0,0.03
2014-1-20,36.7,29.1,17.0,28.0,21.7,9.0,88,74,66,29.88,29.55,13,4,0,0.02
2014-1-21,16.5,8.8,2.8,9.0,1.2,-5.0,81,71,63,30.04,29.89,13,6,0,0.00
2014-1-22,5.8,-0.6,-7.8,-5.0,-8.3,-13.0,79,70,59,30.01,29.81,17,7,0,0.00
2014-1-23,14.6,6.2,-2.5,3.0,-3.1,-9.0,74,66,55,30.24,30.00,6,2,0,0.00
2014-1-24,16.6,8.3,-1.9,0.0,-2.5,-7.0,79,63,46,30.34,30.04,8,1,0,0.00
2014-1-25,19.7,16.3,11.0,16.0,9.0,-1.0,89,74,59,30.03,29.40,11,2,0,0.00
2014-1-26,20.2,13.2,5.0,13.0,5.1,-3.0,90,71,52,29.84,29.40,8,1,0,0.01
2014-1-27,35.7,24.3,12.6,26.0,12.9,-4.0,80,63,39,30.04,29.59,9,2,0,0.00
2014-1-28,13.9,8.4,-1.9,-2.0,-6.1,-10.0,70,52,43,30.33,30.04,9,1,0,0.00
2014-1-29,20.9,12.7,1.3,2.0,-2.6,-5.0,80,52,37,30.26,30.04,9,1,0,0.00
2014-1-30,27.3,13.2,-1.8,10.0,1.1,-8.0,83,61,40,30.45,30.19,6,1,0,0.01
2014-1-31,34.7,25.3,17.9,22.0,14.1,7.0,81,63,48,30.23,30.07,6,1,0,0.00
2014-2-1,42.3,32.4,20.4,31.0,24.1,17.0,89,72,57,30.33,30.02,7,1,0,0.00
2014-2-2,42.8,36.3,30.6,36.0,32.6,25.0,93,86,69,30.09,29.88,12,2,0,0.11
2014-2-3,30.5,24.8,12.5,25.0,20.9,8.0,91,85,75,30.31,30.09,11,4,0,0.00
2014-2-4,28.3,20.5,9.3,19.0,14.6,5.0,89,78,65,30.48,30.30,8,2,0,0.06
2014-2-5,28.1,23.7,17.1,26.0,20.9,14.0,92,89,74,30.29,29.67,11,2,0,0.00
2014-2-6,22.0,14.3,8.8,16.0,9.4,3.0,89,81,70,30.30,29.98,11,3,0,0.01
2014-2-7,29.4,17.6,5.2,15.0,8.1,2.0,89,68,49,30.29,30.19,13,1,0,0.01
2014-2-8,27.4,11.1,-5.0,10.0,1.2,-9.0,87,66,41,30.33,30.16,5,0,0,0.00
2014-2-9,27.2,18.1,6.4,17.0,9.7,1.0,89,70,52,30.18,29.97,9,1,0,0.02
2014-2-10,22.8,14.3,-2.0,17.0,6.9,-6.0,90,73,54,30.26,29.96,9,2,0,0.00
2014-2-11,19.6,7.9,-4.8,9.0,-0.2,-9.0,89,71,53,30.49,30.26,10,2,0,0.00
2014-2-12,25.0,11.2,-1.8,11.0,0.7,-7.0,86,65,37,30.57,30.34,6,1,0,0.01
2014-2-13,31.2,25.2,15.3,29.0,23.1,12.0,93,91,85,30.34,29.08,16,4,0,0.00
2014-2-14,33.6,26.7,21.1,29.0,23.8,18.0,93,89,82,29.76,28.98,14,4,0,0.09
2014-2-15,29.9,24.2,14.5,26.0,21.3,12.0,92,88,80,29.80,29.65,14,4,0,0.01
2014-2-16,22.9,18.9,14.1,16.0,11.0,7.0,87,72,59,30.07,29.70,16,5,0,0.00
2014-2-17,24.2,12.4,3.1,6.0,-0.7,-5.0,74,57,39,30.38,30.08,13,4,0,0.00
2014-2-18,30.1,20.0,9.9,28.0,14.4,0.0,91,80,48,30.33,29.95,7,1,0,0.00
2014-2-19,35.1,26.2,9.8,33.0,23.9,7.0,95,91,81,30.11,29.71,5,0,0,0.00
2014-2-20,46.5,35.4,19.9,32.0,26.8,16.0,94,73,45,30.22,29.99,5,1,0,0.21
2014-2-21,41.0,35.3,32.2,40.0,34.0,31.0,95,95,93,30.04,29.65,11,3,0,0.26
2014-2-22,49.1,39.3,28.5,31.0,25.7,22.0,95,62,39,29.98,29.87,10,2,0,0.01
2014-2-23,45.2,36.7,26.5,30.0,26.2,21.0,84,67,53,29.99,29.78,4,0,0,0.00
2014-2-24,35.6,25.5,18.2,24.0,12.2,6.0,67,58,44,30.02,29.79,12,4,0,0.00
2014-2-25,25.6,16.3,5.2,12.0,6.4,0.0,82,66,52,30.04,29.91,10,2,0,0.00
2014-2-26,25.6,14.1,2.7,10.0,1.8,-6.0,82,60,37,29.95,29.82,12,3,0,0.00
2014-2-27,25.1,12.3,1.2,13.0,0.3,-9.0,80,59,42,30.01,29.61,12,3,0,0.00
2014-2-28,18.3,7.0,-4.4,-1.0,-5.8,-12.0,76,57,39,30.44,30.02,9,2,0,0.00
2014-3-1,32.3,19.0,1.8,16.0,6.2,-6.0,76,59,46,30.44,30.13,9,1,0,0.00
2014-3-2,28.8,25.5,17.5,21.0,15.2,10.0,75,66,58,30.13,30.00,12,4,0,0.00
2014-3-3,17.2,11.2,5.3,9.0,-1.1,-6.0,74,58,48,30.35,30.04,14,6,0,0.00
2014-3-4,25.5,13.4,1.7,9.0,2.1,-6.0,81,62,43,30.42,30.25,7,1,0,0.00
2014-3-5,25.7,19.7,10.5,14.0,9.5,2.0,73,65,52,30.50,30.22,11,2,0,0.00
2014-3-6,30.6,12.8,2.6,9.0,1.3,-3.0,78,62,34,30.64,30.50,10,3,0,0.00
2014-3-7,36.9,23.9,4.2,26.0,16.1,-1.0,87,73,52,30.50,29.96,5,0,0,0.00
2014-3-8,46.0,36.1,28.5,31.0,28.0,25.0,92,74,50,29.95,29.78,11,2,0,0.00
2014-3-9,35.1,28.8,22.8,27.0,17.6,14.0,82,64,46,29.99,29.87,17,4,0,0.00
2014-3-10,30.6,28.2,24.0,22.0,17.3,14.0,76,64,57,29.89,29.79,4,0,0,0.00
2014-3-11,54.2,43.7,35.2,33.0,31.0,29.0,81,63,42,29.71,29.60,6,1,0,0.00
2014-3-12,42.7,34.8,17.7,38.0,30.3,15.0,93,83,70,29.70,29.05,13,1,0,0.27
2014-3-13,18.1,13.7,8.6,15.0,6.1,1.0,88,73,52,30.05,29.14,18,6,0,0.00
2014-3-14,39.5,23.0,6.2,25.0,12.0,2.0,86,64,47,30.20,29.91,10,2,0,0.02
2014-3-15,49.5,40.8,31.0,33.0,28.8,25.0,77,63,51,29.96,29.72,15,2,0,0.00
2014-3-16,30.5,23.5,16.3,24.0,10.3,2.0,78,58,46,30.20,29.95,14,5,0,0.00
2014-3-17,27.0,17.6,12.0,9.0,5.4,2.0,76,60,46,30.17,30.06,9,4,0,0.00
2014-3-18,41.0,25.6,10.9,20.0,9.2,3.0,80,54,26,30.31,30.15,7,0,0,0.00
2014-3-19,40.0,30.9,20.7,33.0,21.9,14.0,93,71,47,30.32,29.89,9,2,0,0.62
2014-3-20,45.7,37.8,33.8,40.0,30.7,23.0,95,77,52,29.86,29.69,12,2,0,0.01
2014-3-21,39.5,33.3,24.0,23.0,21.3,19.0,82,62,51,30.05,29.82,11,3,0,0.00
2014-3-22,52.0,35.6,22.6,36.0,26.3,18.0,85,70,42,30.05,29.73,13,3,0,0.01
2014-3-23,31.7,27.2,17.5,24.0,17.1,7.0,89,67,52,30.12,29.97,11,4,0,0.00
2014-3-24,28.3,19.6,12.6,11.0,7.1,5.0,77,59,42,30.20,30.09,12,4,0,0.00
2014-3-25,33.2,23.6,12.1,19.0,12.8,8.0,85,65,48,30.16,29.89,7,1,0,0.00
2014-3-26,28.1,24.2,17.6,18.0,10.8,3.0,73,57,43,30.16,29.77,23,8,0,0.00
2014-3-27,38.1,26.1,10.9,21.0,11.3,6.0,84,56,35,30.39,30.16,10,2,0,0.00
2014-3-28,45.9,39.3,33.0,44.0,33.7,20.0,95,81,57,30.23,29.96,6,1,0,0.26
2014-3-29,47.2,42.0,36.7,45.0,39.2,34.0,95,90,74,30.21,29.80,9,2,0,0.96
2014-3-30,40.1,37.3,31.3,39.0,35.9,30.0,95,94,93,29.79,29.57,18,8,0,0.57
2014-3-31,43.6,33.5,29.2,36.0,28.9,26.0,94,83,68,30.07,29.72,18,7,0,0.11
2014-4-1,51.7,39.0,28.8,39.0,30.2,25.0,85,72,50,30.13,29.99,14,3,0,0.00
2014-4-2,59.0,43.5,34.5,41.0,35.3,31.0,89,74,45,30.10,30.01,4,1,0,0.00
2014-4-3,51.4,42.1,33.4,32.0,28.7,24.0,76,60,44,30.13,30.04,11,4,0,0.00
2014-4-4,45.2,39.4,33.5,33.0,29.9,26.0,92,70,54,30.08,29.77,14,3,0,0.11
2014-4-5,47.7,38.7,32.9,40.0,30.9,22.0,94,75,52,30.00,29.72,15,3,0,0.00
2014-4-6,55.3,38.8,28.5,34.0,25.3,22.0,79,61,32,30.20,30.01,13,2,0,0.00
2014-4-7,50.3,41.2,31.2,42.0,28.5,22.0,93,64,35,30.20,29.72,9,2,0,0.09
2014-4-8,60.2,49.4,40.0,53.0,43.5,33.0,96,81,60,29.71,29.32,13,4,0,0.08
2014-4-9,51.8,42.7,31.9,37.0,28.5,15.0,92,61,34,30.00,29.58,18,4,0,0.00
2014-4-10,59.6,43.0,24.2,36.0,27.5,19.0,84,57,37,30.16,29.98,18,3,0,0.00
2014-4-11,65.2,52.5,45.0,51.0,41.9,34.0,92,69,51,30.03,29.92,9,2,0,0.39
2014-4-12,66.9,50.7,35.3,46.0,39.5,33.0,95,70,33,30.21,29.99,5,1,0,0.01
2014-4-13,75.2,59.4,45.9,56.0,46.7,34.0,87,64,50,30.18,29.92,13,3,0,0.01
2014-4-14,72.6,63.7,57.2,59.0,54.8,52.0,89,73,58,29.97,29.79,13,4,0,0.00
2014-4-15,60.1,51.9,28.4,58.0,49.3,27.0,94,91,82,29.84,29.48,16,6,0,1.21
2014-4-16,37.0,29.6,22.8,26.0,19.4,16.0,93,67,49,30.59,29.85,17,7,0,0.06
2014-4-17,48.2,35.6,24.2,29.0,22.4,18.0,82,61,39,30.75,30.60,9,2,0,0.00
2014-4-18,45.9,36.7,25.4,32.0,27.6,22.0,86,71,53,30.61,30.24,9,1,0,0.00
2014-4-19,57.0,44.8,30.3,37.0,31.7,27.0,92,63,40,30.38,30.20,13,3,0,0.00
2014-4-20,60.1,46.1,32.6,30.0,27.0,24.0,76,51,29,30.48,30.31,9,1,0,0.00
2014-4-21,68.7,49.6,30.1,36.0,28.2,23.0,89,50,21,30.30,29.84,9,1,0,0.00
2014-4-22,68.0,54.0,42.0,51.0,43.3,35.0,90,69,45,29.83,29.48,12,1,0,0.00
2014-4-23,51.7,43.7,40.0,49.0,38.0,30.0,92,81,66,29.77,29.47,14,6,0,0.08
2014-4-24,52.6,43.2,34.4,29.0,22.5,18.0,69,46,29,30.01,29.77,19,8,0,0.00
2014-4-25,63.0,47.3,28.8,32.0,26.6,23.0,81,48,25,30.04,29.78,7,2,0,0.00
2014-4-26,59.2,45.6,39.2,47.0,40.4,32.0,94,83,54,29.85,29.69,10,1,0,0.53
2014-4-27,49.1,43.9,39.7,41.0,36.8,35.0,84,76,67,30.12,29.85,12,4,0,0.00
2014-4-28,59.0,48.0,33.7,40.0,36.6,30.0,92,67,47,30.15,30.01,11,3,0,0.00
2014-4-29,46.9,42.5,37.7,39.0,36.6,35.0,91,80,68,30.43,30.14,10,3,0,0.11
2014-4-30,46.8,40.2,36.8,45.0,38.3,34.0,94,92,89,30.43,30.02,14,4,0,1.33
2014-5-1,71.5,56.4,45.8,61.0,51.4,44.0,96,85,52,30.02,29.64,15,3,0,0.17
2014-5-2,62.4,52.6,41.2,44.0,40.6,38.0,89,66,45,29.81,29.68,11,2,0,0.00
2014-5-3,62.3,51.2,38.5,49.0,41.4,36.0,93,72,46,29.85,29.71,9,1,0,0.02
2014-5-4,57.7,50.8,45.2,46.0,38.1,32.0,90,64,40,29.73,29.57,15,4,0,0.01
2014-5-5,59.6,51.0,43.5,41.0,38.2,36.0,79,63,44,29.88,29.73,13,6,0,0.00
2014-5-6,48.7,43.7,40.1,38.0,36.8,36.0,86,77,64,29.92,29.87,9,1,0,0.00